[[{"header":{"parameterUnit":"m.s-1","parameterCategory":1,"la1":30.2991,"la2":30.254,"lo1":-89.0895,"lo2":-89.0444,"dy":0.0017,"dx":0.0017,"nx":28,"ny":28,"refTime":"2023-10-16T03:00:00:Z","depth":0,"parameterNumber":2,"parameterNumberName":"U-component_of_WINDS"},"data":[0,0,0,0,0,0,0,0,0,0,0,0,0,0,0,0,0,0,0,0,0,0,0,0,0,0,0,0,0,0,0,0,0,0,0,0,0,0,0,0,0,0,0,0,0,0,0,0,0,0,0,0,0,0,0,0,0,0,1.2902,1.2903,0,1.2962,1.2962,1.2963,1.2991,1.2991,1.2991,1.2991,1.3055,1.3057,1.3059,0,0,0,0,0,0,0,0,0,0,0,0,0,1.2815,1.2817,1.2902,1.2903,1.2903,1.2961,1.2962,1.2963,1.2991,1.2991,1.2991,1.2991,1.3055,1.3057,1.3059,0,0,0,0,0,0,0,0,0,0,0,0,0,1.2862,1.2817,1.2902,1.2924,1.2927,1.2961,1.2962,1.2963,1.2991,1.2991,1.2991,1.2991,1.3054,1.3056,1.3059,1.3076,0,0,1.3067,1.3068,0,0,0,0,0,0,0,0,1.2859,1.2865,1.292,1.2923,1.2926,1.2969,1.2955,1.3001,1.2991,1.2967,1.2991,1.2991,1.3027,1.3032,1.3043,1.3079,1.3082,1.3067,1.3069,1.307,1.3071,0,0,0,0,0,0,0,1.2856,1.2863,1.2926,1.2921,1.2924,1.2932,1.2939,1.2964,1.2997,1.2969,1.2971,1.2978,1.3028,1.304,1.3045,1.3083,1.3067,1.3069,1.3071,1.3072,1.3137,1.3137,0,0,0,0,0,0,1.2849,1.286,1.2924,1.2927,1.2892,1.2934,1.2941,1.2955,1.2996,1.3002,1.2978,1.2979,1.3036,1.3042,1.3047,1.307,1.307,1.3072,1.3074,1.3137,1.3137,1.3137,0,0,0,0,0,0,1.2847,1.2854,1.2921,1.2894,1.2903,1.2936,1.2951,1.2956,1.2968,1.3003,1.3009,1.2984,1.3036,1.3043,1.3069,1.3073,1.3074,1.3076,1.3137,1.3137,1.3137,1.3116,0,0,0,0,0,0,1.2844,1.2853,1.2859,1.2894,1.2905,1.2941,1.2951,1.2958,1.2973,1.2975,1.301,1.3016,1.3037,1.3065,1.3071,1.3076,1.3078,1.3136,1.3137,1.3137,1.3117,1.3116,1.3115,0,0,0,0,0,1.2841,1.2852,1.2859,1.2867,1.2913,1.2941,1.2947,1.297,1.2973,1.298,1.3002,1.3015,1.3071,1.3067,1.3075,1.3081,1.3136,1.3137,1.3137,1.3117,1.3116,1.3115,0,0,0,0,0,0,1.2817,1.2857,1.2866,1.2888,1.2911,1.2946,1.2955,1.2968,1.2991,1.2992,1.302,1.3028,1.3051,1.3068,1.3063,1.31,1.3105,1.3107,1.3087,1.3086,1.3085,1.3081,1.308,0,0,0,0,0,1.2815,1.2833,1.2867,1.2883,1.2894,1.2923,1.2936,1.2951,1.2976,1.2987,1.3011,1.3035,1.3059,1.3074,1.3097,1.3119,1.3128,1.3127,1.3126,1.3125,1.3127,1.314,1.3141,1.3138,1.3138,1.3138,0,0,1.281,1.2833,1.2844,1.2879,1.2899,1.2919,1.2931,1.2951,1.2966,1.299,1.3015,1.3034,1.3063,1.3087,1.3099,1.3103,1.3129,1.3126,1.3125,1.3127,1.3141,1.3141,1.3141,1.3139,1.3138,1.3138,0,0,1.281,1.283,1.2846,1.2865,1.2894,1.2913,1.2917,1.295,1.2963,1.2988,1.3006,1.3025,1.3065,1.3085,1.3101,1.3109,1.3122,1.3116,1.3111,1.3124,1.3124,1.3125,1.3128,1.3129,1.3117,1.3117,1.3117,0,1.28,1.283,1.2852,1.2872,1.2887,1.2909,1.2925,1.2943,1.2979,1.299,1.2993,1.3043,1.3064,1.3093,1.3095,1.3107,1.3113,1.3112,1.3122,1.3123,1.3124,1.3127,1.3128,1.3116,1.3116,1.3116,1.3117,0,1.2817,1.2837,1.2846,1.2879,1.2896,1.2914,1.294,1.2954,1.2968,1.2986,1.3012,1.3039,1.3068,1.3076,1.309,1.3107,1.3109,1.3117,1.3123,1.3122,1.3126,1.3128,1.3115,1.3115,1.3115,1.3116,0,0,1.2804,1.2849,1.2852,1.2867,1.2901,1.2918,1.2937,1.2965,1.2976,1.3001,1.3018,1.305,1.3058,1.3076,1.3092,1.3104,1.3109,1.3111,1.3112,1.3109,1.313,1.3124,1.3125,1.3118,1.3118,1.3118,1.3128,0,1.281,1.2844,1.2865,1.2891,1.2911,1.2931,1.2948,1.2971,1.2989,1.3009,1.303,1.3052,1.306,1.3071,1.3083,1.3106,1.3113,1.3105,1.3135,1.3136,1.3127,1.3127,1.312,1.3128,1.3129,1.3129,1.313,0,1.2821,1.2843,1.2871,1.2903,1.2912,1.2926,1.2953,1.2972,1.2999,1.3011,1.303,1.3047,1.3069,1.3073,1.3104,1.3098,1.3112,1.3124,1.3125,1.3129,1.3133,1.3131,1.3131,1.3132,1.3132,1.3132,1.3132,0,1.2809,1.2846,1.2868,1.288,1.2918,1.2928,1.2944,1.2971,1.2986,1.301,1.3021,1.3047,1.3062,1.3082,1.3106,1.3106,1.3135,1.3141,1.3146,1.3146,1.3152,1.3151,1.3154,1.316,1.316,1.316,1.316,0,1.2813,1.2829,1.2863,1.2876,1.2896,1.292,1.2939,1.2957,1.298,1.2998,1.3018,1.3035,1.3065,1.3085,1.3104,1.3127,1.3134,1.3145,1.315,1.3143,1.3142,1.3153,1.3153,1.316,1.316,1.316,1.316,0,1.2803,1.2827,1.2851,1.2885,1.2894,1.2906,1.2935,1.295,1.2968,1.2991,1.2998,1.3028,1.3053,1.3078,1.3113,1.3125,1.3148,1.3155,1.3139,1.3141,1.3146,1.3145,1.3156,1.3159,1.3162,1.3162,1.3162,0,1.2804,1.2817,1.2852,1.2865,1.288,1.2901,1.2916,1.2941,1.2957,1.2988,1.2999,1.3025,1.3048,1.3087,1.3113,1.3139,1.3147,1.3149,1.3151,1.3144,1.3147,1.3146,1.3148,1.3148,1.3147,1.3147,1.3147,0,1.2804,1.2815,1.2836,1.2861,1.2879,1.29,1.2922,1.2932,1.2961,1.2978,1.3003,1.302,1.3055,1.3081,1.311,1.3128,1.3143,1.3146,1.3149,1.3143,1.3133,1.3138,1.3136,1.3146,1.3146,1.3146,1.3146,1.3146,1.28,1.2812,1.2838,1.2861,1.2881,1.2901,1.2916,1.2936,1.2958,1.2987,1.3001,1.3026,1.3054,1.3094,1.3112,1.3133,1.3137,1.3141,1.3142,1.3143,1.3141,1.3129,1.3138,1.3139,1.3139,1.3139,1.3139,0,1.28,1.2818,1.2839,1.2869,1.2887,1.2898,1.2924,1.2938,1.296,1.2984,1.3005,1.3035,1.3061,1.3088,1.3115,1.3127,1.3134,1.3133,1.3133,1.3137,1.3136,1.3131,1.3127,1.3127,1.3127,1.3127,1.3127,1.3127,1.2803,1.2825,1.2839,1.2871,1.2889,1.2913,1.2927,1.2946,1.2965,1.2996,1.3017,1.3035,1.306,1.309,1.3114,1.3121,1.3131,1.3128,1.3137,1.3136,1.3137,1.3138,1.3133,1.313,1.313,1.3137,1.3137,1.3137]},{"header":{"parameterUnit":"m.s-1","parameterCategory":1,"la1":30.2991,"la2":30.254,"lo1":-89.0895,"lo2":-89.0444,"dy":0.0017,"dx":0.0017,"nx":28,"ny":28,"refTime":"2023-10-16T03:00:00:Z","depth":0,"parameterNumber":3,"parameterNumberName":"V-component_of_WINDS"},"data":[0,0,0,0,0,0,0,0,0,0,0,0,0,0,0,0,0,0,0,0,0,0,0,0,0,0,0,0,0,0,0,0,0,0,0,0,0,0,0,0,0,0,0,0,0,0,0,0,0,0,0,0,0,0,0,0,0,0,1.2391,1.2391,0,1.2391,1.2391,1.2391,1.2401,1.2401,1.2402,1.2402,1.24,1.2399,1.2399,0,0,0,0,0,0,0,0,0,0,0,0,0,1.2396,1.2396,1.2391,1.2391,1.2391,1.2391,1.2391,1.2391,1.2401,1.2401,1.2402,1.2402,1.24,1.2399,1.2399,0,0,0,0,0,0,0,0,0,0,0,0,0,1.2394,1.2396,1.2391,1.2396,1.2397,1.2391,1.2391,1.2391,1.2401,1.2401,1.2402,1.2402,1.24,1.2399,1.2399,1.2388,0,0,1.2398,1.2397,0,0,0,0,0,0,0,0,1.2395,1.2394,1.2396,1.2396,1.2396,1.2397,1.2392,1.239,1.2401,1.2399,1.2402,1.2402,1.2398,1.2398,1.2397,1.2388,1.2388,1.2398,1.2397,1.2397,1.2397,0,0,0,0,0,0,0,1.2395,1.2394,1.2391,1.2396,1.2396,1.2397,1.2397,1.2392,1.2396,1.24,1.24,1.24,1.2398,1.2397,1.2397,1.2388,1.2398,1.2397,1.2397,1.2397,1.2366,1.2366,0,0,0,0,0,0,1.2394,1.2394,1.2391,1.2391,1.2397,1.2397,1.2397,1.2396,1.2397,1.2397,1.24,1.2401,1.2398,1.2397,1.2397,1.2382,1.2397,1.2397,1.2396,1.2367,1.2366,1.2366,0,0,0,0,0,0,1.2395,1.2394,1.2391,1.2393,1.2393,1.2396,1.2395,1.2396,1.2395,1.2397,1.2397,1.2398,1.2398,1.2398,1.239,1.2382,1.2396,1.2396,1.2368,1.2367,1.2366,1.2354,0,0,0,0,0,0,1.2395,1.2394,1.2391,1.2393,1.2393,1.2385,1.2395,1.2396,1.2394,1.2395,1.2395,1.2396,1.2399,1.239,1.2389,1.2382,1.2396,1.2368,1.2367,1.2366,1.2355,1.2353,1.2351,0,0,0,0,0,1.2395,1.2388,1.2391,1.2391,1.2389,1.2385,1.2385,1.2389,1.2394,1.239,1.2391,1.2396,1.2383,1.2389,1.2388,1.2381,1.2369,1.2368,1.2366,1.2356,1.2353,1.2351,0,0,0,0,0,0,1.2386,1.2389,1.2392,1.2386,1.2385,1.2387,1.2383,1.2386,1.2384,1.2385,1.2389,1.2389,1.2379,1.2379,1.2386,1.2368,1.2377,1.2375,1.2369,1.2366,1.2364,1.2364,1.2395,0,0,0,0,0,1.2383,1.238,1.2383,1.2377,1.2376,1.2379,1.2378,1.238,1.238,1.2379,1.2379,1.2377,1.2373,1.237,1.2366,1.2355,1.2353,1.2349,1.2347,1.2345,1.2343,1.2334,1.2331,1.2362,1.2362,1.2362,0,0,1.2378,1.2379,1.2377,1.2375,1.2375,1.237,1.2379,1.2375,1.2371,1.2378,1.2371,1.237,1.2368,1.2358,1.2353,1.2357,1.2334,1.2343,1.2342,1.2341,1.2333,1.233,1.2327,1.2361,1.2361,1.2361,0,0,1.2365,1.2367,1.2361,1.236,1.2359,1.2361,1.2359,1.2359,1.2359,1.2352,1.2356,1.2351,1.2344,1.2341,1.2338,1.2321,1.2324,1.232,1.2309,1.23,1.2297,1.2295,1.2287,1.2284,1.2318,1.2318,1.2318,0,1.2358,1.2353,1.2357,1.2352,1.2349,1.2356,1.2348,1.2347,1.2345,1.2342,1.2347,1.2336,1.2335,1.2323,1.2318,1.2317,1.2313,1.232,1.2298,1.2295,1.2293,1.2285,1.2282,1.2317,1.2317,1.2318,1.2318,0,1.2343,1.2339,1.2334,1.2331,1.2328,1.2322,1.2324,1.232,1.2322,1.2322,1.2312,1.2311,1.2306,1.2303,1.2306,1.229,1.2292,1.2297,1.2305,1.229,1.2282,1.2279,1.2316,1.2317,1.2317,1.2317,0,0,1.2327,1.2324,1.2322,1.232,1.2318,1.2314,1.2306,1.2301,1.2297,1.2294,1.2286,1.2278,1.2282,1.2279,1.2281,1.2273,1.2256,1.2279,1.2279,1.2273,1.2235,1.223,1.2227,1.2258,1.2258,1.2257,1.2235,0,1.2313,1.2302,1.2304,1.2291,1.2286,1.229,1.2283,1.228,1.2279,1.2272,1.2271,1.2265,1.2271,1.2269,1.2262,1.226,1.2248,1.2262,1.2249,1.2248,1.2248,1.2223,1.2219,1.2198,1.2232,1.2231,1.2231,0,1.2297,1.2293,1.228,1.2275,1.2273,1.2267,1.226,1.2255,1.225,1.225,1.2245,1.2247,1.2237,1.2245,1.223,1.2239,1.2233,1.2231,1.223,1.2229,1.2238,1.2219,1.2192,1.2188,1.2227,1.2227,1.2227,0,1.2284,1.2275,1.2265,1.2263,1.2259,1.2254,1.2251,1.2247,1.2242,1.2236,1.2232,1.2225,1.2221,1.2214,1.2212,1.2219,1.2196,1.2205,1.2193,1.2193,1.2188,1.2188,1.2157,1.2187,1.2187,1.2187,1.2187,0,1.2268,1.226,1.2259,1.2253,1.2242,1.2244,1.2232,1.223,1.2226,1.2217,1.222,1.2212,1.2212,1.2203,1.2202,1.2188,1.2186,1.2184,1.2183,1.2183,1.2183,1.2179,1.218,1.2186,1.2186,1.2186,1.2186,0,1.2253,1.2252,1.2241,1.2237,1.2235,1.2228,1.2223,1.2216,1.2214,1.2203,1.2201,1.2198,1.2187,1.2185,1.2173,1.2172,1.2154,1.2156,1.2156,1.2155,1.2143,1.2143,1.2107,1.2102,1.2136,1.2136,1.2136,0,1.2242,1.2236,1.223,1.2225,1.2222,1.2214,1.2208,1.2208,1.2202,1.2194,1.2187,1.2177,1.2168,1.215,1.2146,1.2135,1.2136,1.2124,1.2134,1.2133,1.2133,1.2133,1.213,1.2122,1.2121,1.2121,1.2121,0,1.2224,1.2223,1.2216,1.2207,1.2201,1.2194,1.2188,1.2183,1.2182,1.2174,1.2163,1.2156,1.2142,1.2131,1.2119,1.2115,1.2116,1.2117,1.2113,1.2112,1.2112,1.2109,1.2148,1.2118,1.2118,1.2119,1.2119,1.2119,1.2209,1.2202,1.2196,1.2187,1.2182,1.2175,1.2167,1.2163,1.2154,1.2143,1.2143,1.213,1.2121,1.2106,1.21,1.2089,1.2092,1.2088,1.2086,1.2084,1.2082,1.2114,1.2087,1.2087,1.2087,1.2087,1.2087,0,1.2189,1.2185,1.2176,1.2166,1.2158,1.216,1.2152,1.2145,1.2134,1.2126,1.2117,1.2101,1.2089,1.2083,1.207,1.2061,1.2061,1.2058,1.2058,1.2056,1.2081,1.2084,1.2058,1.2058,1.2058,1.2058,1.2058,1.2058,1.2178,1.2165,1.2163,1.2146,1.2141,1.2128,1.2123,1.2115,1.2109,1.2092,1.2082,1.2077,1.2069,1.2054,1.2042,1.204,1.2034,1.203,1.2028,1.2052,1.2055,1.2057,1.2061,1.2029,1.2029,1.2004,1.2003,1.2003]}]]